Tracking 25949 objects as of 8-Aug-2022
HD Live streaming from Space Station
objects crossing your sky now

COSMOS 1275 DEB

Track COSMOS 1275 DEB now!
10-day predictions


NORAD ID: 42205
Int'l Code: 1981-053TV
Perigee: 918.7 km
Apogee: 1,086.4 km
Inclination: 83.0 °
Period: 105.0 minutes
Semi major axis: 7373 km
RCS: Unknown
Launch date: June 4, 1981
Source: Commonwealth of Independent States (former USSR) (CIS)
Launch site: PLESETSK MISSILE AND SPACE COMPLEX (PKMTR)

Note: This is SATELLITE DEBRIS
aabbcc
Your satellite tracking list
Your tracking list is empty




NASA's NSSDC Master Catalog

Two Line Element Set (TLE):
1 42205U 81053TV  22219.86324029  .00000830  00000-0  87098-3 0  9996
2 42205  83.0367 261.1513 0113710 312.9613  46.2047 13.71159441435257
Source of the keplerian elements: AFSPC